Location: Camerons Lookout
(40.9833°S, 175.9333°E)
Time: 01:31:40
(UTC+00:00)

ARIANE 5 R/B - Pass Details

Date: 14 January 2026
Orbit: 614 x 648 km, 98.0° (Epoch: 14 September)

Event Time Altitude Azimuth Distance (km) Brightness Sun altitude
Rises 11:44:29 0° 158° (SSE) 2,923 6.9 -27.0°
Reaches altitude 10° 11:46:52 10° 148° (SSE) 2,007 5.7 -27.1°
Enters shadow 11:49:29 27° 118° (ESE) 1,206 4.1 -27.2°
